TimeMST,TemperatureF,Dew PointF,Humidity,Sea Level PressureIn,VisibilityMPH,Wind Direction,Wind SpeedMPH,Gust SpeedMPH,PrecipitationIn,Events,Conditions,WindDirDegrees,DateUTC
12:57 AM,81.0,52.0,36,29.77,10.0,Calm,Calm,-,N/A,,Clear,0,2013-08-12 07:57:00
1:57 AM,81.0,53.1,38,29.77,10.0,SW,3.5,-,N/A,,Clear,220,2013-08-12 08:57:00
2:57 AM,80.1,53.1,39,29.76,10.0,Calm,Calm,-,N/A,,Clear,0,2013-08-12 09:57:00
3:57 AM,77.0,53.1,43,29.77,10.0,Calm,Calm,-,N/A,,Clear,0,2013-08-12 10:57:00
4:57 AM,77.0,46.0,33,29.76,10.0,South,3.5,-,N/A,,Clear,190,2013-08-12 11:57:00
5:57 AM,77.0,46.0,33,29.78,10.0,Calm,Calm,-,N/A,,Clear,0,2013-08-12 12:57:00
6:57 AM,77.0,44.1,31,29.80,10.0,Calm,Calm,-,N/A,,Clear,0,2013-08-12 13:57:00
7:57 AM,82.0,46.0,28,29.82,10.0,Variable,4.6,-,N/A,,Clear,0,2013-08-12 14:57:00
8:57 AM,84.0,54.0,35,29.82,10.0,SSW,4.6,-,N/A,,Clear,200,2013-08-12 15:57:00
9:57 AM,89.1,54.0,30,29.84,10.0,Calm,Calm,-,N/A,,Clear,0,2013-08-12 16:57:00
10:57 AM,93.0,55.0,28,29.84,10.0,South,5.8,-,N/A,,Clear,170,2013-08-12 17:57:00
11:57 AM,97.0,50.0,20,29.82,10.0,South,6.9,-,N/A,,Clear,180,2013-08-12 18:57:00
12:57 PM,100.0,44.1,15,29.80,10.0,Variable,3.5,-,N/A,,Clear,0,2013-08-12 19:57:00
1:57 PM,102.9,33.1,9,29.78,10.0,Variable,6.9,-,N/A,,Clear,0,2013-08-12 20:57:00
2:57 PM,104.0,36.0,10,29.76,10.0,Variable,3.5,-,N/A,,Clear,0,2013-08-12 21:57:00
3:57 PM,104.0,35.1,9,29.74,10.0,SSE,4.6,-,N/A,,Clear,160,2013-08-12 22:57:00
4:57 PM,104.0,33.1,9,29.73,10.0,SE,4.6,-,N/A,,Clear,130,2013-08-12 23:57:00
5:57 PM,105.1,32.0,8,29.72,10.0,South,8.1,-,N/A,,Clear,180,2013-08-13 00:57:00
6:57 PM,102.9,34.0,9,29.72,10.0,South,5.8,-,N/A,,Clear,170,2013-08-13 01:57:00
7:57 PM,100.0,36.0,11,29.73,10.0,Calm,Calm,-,N/A,,Clear,0,2013-08-13 02:57:00
8:57 PM,93.0,37.9,15,29.75,10.0,South,6.9,-,N/A,,Clear,190,2013-08-13 03:57:00
9:57 PM,88.0,45.0,22,29.78,10.0,South,6.9,-,N/A,,Clear,190,2013-08-13 04:57:00
10:57 PM,84.9,46.0,26,29.78,10.0,SSE,3.5,-,N/A,,Clear,160,2013-08-13 05:57:00
11:57 PM,84.0,33.1,16,29.78,10.0,SSW,3.5,-,N/A,,Clear,200,2013-08-13 06:57:00